Location: Unspecified
(0.0000°N, 0.0000°E)
Time: 14:24:00
(UTC+00:00)

STARLINK-1752 - Pass Details

Date: 16 November 2025
Orbit: 418 x 431 km, 53.1° (Epoch: 10 December)

Event Time Altitude Azimuth Distance (km) Brightness Sun altitude
Rises 18:12:21 0° 344° (NNW) 2,453 6.9 -6.5°
Reaches altitude 10° 18:14:42 10° 357° (N) 1,575 5.8 -7.1°
Maximum altitude 18:17:44 26° 56° (NE) 903 4.2 -7.8°
Drops below altitude 10° 18:20:45 10° 115° (ESE) 1,557 5.5 -8.5°
Sets 18:23:10 0° 128° (SE) 2,460 6.6 -9.0°
